This is the latest recevied weather packets stored in our database for station/object SP3TOM-10. If no packets are shown the sender has not sent any weather packets the latest 10 day(s).
| Time | Temp. | Humidity | Pressure | Rain* | Wind** | Luminosity | Snow |
|---|---|---|---|---|---|---|---|
| 1777725986 | 30° C | 20% | 1010.2 hPa | - | - | - | - |
| 1777725086 | 30° C | 20% | 1010.3 hPa | - | - | - | - |
| 1777724186 | 29.44° C | 21% | 1010.6 hPa | - | - | - | - |
| 1777723285 | 29.44° C | 20% | 1010.8 hPa | - | - | - | - |
| 1777722385 | 29.44° C | 21% | 1010.9 hPa | - | - | - | - |
| 1777721485 | 28.89° C | 23% | 1011.2 hPa | - | - | - | - |
| 1777720585 | 28.33° C | 23% | 1011.4 hPa | - | - | - | - |
| 1777719685 | 27.78° C | 24% | 1011.5 hPa | - | - | - | - |
| 1777718785 | 27.22° C | 24% | 1011.6 hPa | - | - | - | - |
| 1777717884 | 26.67° C | 26% | 1011.7 hPa | - | - | - | - |
| 1777716984 | 26.11° C | 26% | 1012 hPa | - | - | - | - |
| 1777716084 | 25.56° C | 27% | 1012 hPa | - | - | - | - |
| 1777715184 | 25° C | 27% | 1012.2 hPa | - | - | - | - |
| 1777714284 | 24.44° C | 28% | 1012.5 hPa | - | - | - | - |
| 1777713384 | 23.89° C | 30% | 1012.5 hPa | - | - | - | - |
| 1777712483 | 23.33° C | 32% | 1012.6 hPa | - | - | - | - |
| 1777711583 | 22.78° C | 33% | 1012.7 hPa | - | - | - | - |
| 1777710683 | 21.67° C | 35% | 1012.9 hPa | - | - | - | - |
| 1777709783 | 21.11° C | 36% | 1013 hPa | - | - | - | - |
| 1777708883 | 20.56° C | 36% | 1013 hPa | - | - | - | - |
| 1777707983 | 20° C | 37% | 1013 hPa | - | - | - | - |
| 1777707082 | 18.89° C | 38% | 1013.1 hPa | - | - | - | - |
| 1777706182 | 18.33° C | 39% | 1013.1 hPa | - | - | - | - |
| 1777705281 | 17.78° C | 38% | 1013.1 hPa | - | - | - | - |
| 1777704379 | 17.22° C | 38% | 1013.2 hPa | - | - | - | - |
* Rain since midnight (hover to see other rain measurements)
** Current wind speed in m/s (hover to see current wind gust speed)